Hourly Weather Ludomirowo

Today, 20 June, Sunday

Time Temperature Precipitation Wind Pressure Humidity
00:00 +19°C° 0 mm 2 mps 748 mmHg 86%
01:00 +19°C° 0 mm 2 mps 749 mmHg 87%
02:00 +19°C° 0 mm 2 mps 749 mmHg 88%
03:00 +19°C° 0 mm 2 mps 748 mmHg 88%
04:00 +19°C° 0 mm 2 mps 748 mmHg 88%
05:00 +19°C° 0 mm 2 mps 748 mmHg 88%
06:00 +20°C° 0 mm 2 mps 748 mmHg 82%
07:00 +22°C° 0 mm 3 mps 748 mmHg 77%
08:00 +25°C° 0 mm 3 mps 748 mmHg 71%
09:00 +26°C° 0 mm 4 mps 748 mmHg 67%
10:00 +27°C° 0 mm 4 mps 748 mmHg 64%
11:00 +29°C° 0 mm 4 mps 748 mmHg 60%
12:00 +29°C° 0 mm 4 mps 748 mmHg 58%
13:00 +30°C° 0 mm 5 mps 748 mmHg 55%
14:00 +32°C° 0 mm 4 mps 747 mmHg 54%
15:00 +30°C° 0 mm 4 mps 747 mmHg 56%
16:00 +30°C° 0 mm 4 mps 747 mmHg 58%
17:00 +30°C° 0 mm 4 mps 746 mmHg 60%
18:00 +28°C° 0.4 mm 4 mps 746 mmHg 67%
19:00 +27°C° 0.4 mm 3 mps 746 mmHg 74%
20:00 +25°C° 0.4 mm 3 mps 746 mmHg 81%
21:00 +24°C° 0.1 mm 3 mps 746 mmHg 82%
22:00 +21°C° 0.1 mm 3 mps 746 mmHg 83%
23:00 +19°C° 0.1 mm 3 mps 746 mmHg 84%

Tomorrow, 21 June, Monday

Time Temperature Precipitation Wind Pressure Humidity
00:00 +19°C° 0.1 mm 3 mps 746 mmHg 86%
01:00 +19°C° 0.1 mm 3 mps 746 mmHg 87%
02:00 +19°C° 0.1 mm 3 mps 746 mmHg 88%
03:00 +19°C° 0 mm 3 mps 746 mmHg 90%
04:00 +19°C° 0 mm 2 mps 745 mmHg 92%
05:00 +19°C° 0 mm 2 mps 745 mmHg 93%
06:00 +21°C° 0 mm 3 mps 745 mmHg 88%
07:00 +22°C° 0 mm 3 mps 745 mmHg 83%
08:00 +25°C° 0 mm 4 mps 745 mmHg 78%
09:00 +26°C° 0 mm 4 mps 745 mmHg 72%
10:00 +27°C° 0 mm 4 mps 745 mmHg 65%
11:00 +29°C° 0 mm 5 mps 745 mmHg 58%
12:00 +29°C° 0 mm 5 mps 745 mmHg 57%
13:00 +29°C° 0 mm 5 mps 745 mmHg 55%
14:00 +30°C° 0 mm 6 mps 744 mmHg 53%
15:00 +29°C° 0 mm 5 mps 744 mmHg 57%
16:00 +29°C° 0 mm 5 mps 744 mmHg 61%
17:00 +28°C° 0 mm 5 mps 744 mmHg 65%
18:00 +27°C° 0.3 mm 4 mps 744 mmHg 70%
19:00 +26°C° 0.3 mm 3 mps 743 mmHg 75%
20:00 +25°C° 0.3 mm 3 mps 743 mmHg 81%
21:00 +24°C° 0 mm 2 mps 743 mmHg 83%
22:00 +23°C° 0 mm 2 mps 743 mmHg 86%
23:00 +21°C° 0 mm 2 mps 743 mmHg 88%

Day after tomorrow, 22 June, Tuesday

Time Temperature Precipitation Wind Pressure Humidity
00:00 +20°C° 0 mm 2 mps 743 mmHg 90%
01:00 +20°C° 0 mm 2 mps 743 mmHg 91%
02:00 +19°C° 0 mm 2 mps 743 mmHg 93%
03:00 +19°C° 0 mm 2 mps 743 mmHg 93%
04:00 +19°C° 0 mm 2 mps 743 mmHg 93%
05:00 +19°C° 0 mm 2 mps 743 mmHg 94%
06:00 +21°C° 0 mm 3 mps 744 mmHg 88%
07:00 +24°C° 0 mm 3 mps 744 mmHg 82%
08:00 +25°C° 0 mm 3 mps 744 mmHg 76%
09:00 +27°C° 0 mm 4 mps 744 mmHg 71%
10:00 +28°C° 0 mm 4 mps 744 mmHg 66%
11:00 +29°C° 0 mm 4 mps 744 mmHg 60%
12:00 +29°C° 0.1 mm 4 mps 744 mmHg 59%
13:00 +30°C° 0.1 mm 4 mps 744 mmHg 57%
14:00 +30°C° 0.1 mm 4 mps 744 mmHg 56%
15:00 +30°C° 0.1 mm 4 mps 744 mmHg 59%
16:00 +29°C° 0.1 mm 3 mps 744 mmHg 62%
17:00 +29°C° 0.1 mm 3 mps 744 mmHg 65%
18:00 +28°C° 0 mm 3 mps 744 mmHg 69%
19:00 +27°C° 0 mm 3 mps 744 mmHg 72%
20:00 +26°C° 0 mm 3 mps 744 mmHg 76%
21:00 +25°C° 0 mm 2 mps 745 mmHg 77%
22:00 +24°C° 0 mm 2 mps 745 mmHg 79%
23:00 +23°C° 0 mm 2 mps 745 mmHg 80%

23 June, Wednesday

Time Temperature Precipitation Wind Pressure Humidity
00:00 +23°C° 0 mm 2 mps 745 mmHg 82%
01:00 +21°C° 0 mm 2 mps 745 mmHg 84%
02:00 +21°C° 0 mm 2 mps 746 mmHg 86%
03:00 +22°C° 0 mm 1 mps 746 mmHg 86%
04:00 +22°C° 0 mm 1 mps 746 mmHg 86%
05:00 +22°C° 0 mm 1 mps 746 mmHg 87%
06:00 +24°C° 0 mm 1 mps 746 mmHg 81%
07:00 +25°C° 0 mm 2 mps 746 mmHg 76%
08:00 +27°C° 0 mm 2 mps 747 mmHg 71%
09:00 +28°C° 0.1 mm 2 mps 747 mmHg 67%
10:00 +29°C° 0.1 mm 2 mps 747 mmHg 63%
11:00 +30°C° 0.1 mm 2 mps 747 mmHg 59%
12:00 +31°C° 0.5 mm 2 mps 747 mmHg 57%
13:00 +31°C° 0.5 mm 2 mps 747 mmHg 56%
14:00 +33°C° 0.5 mm 3 mps 747 mmHg 54%
15:00 +31°C° 0.6 mm 3 mps 747 mmHg 58%
16:00 +30°C° 0.6 mm 3 mps 747 mmHg 63%
17:00 +29°C° 0.6 mm 3 mps 747 mmHg 68%
18:00 +27°C° 1.3 mm 2 mps 747 mmHg 73%
19:00 +26°C° 1.3 mm 2 mps 747 mmHg 79%
20:00 +25°C° 1.3 mm 1 mps 747 mmHg 84%
21:00 +24°C° 0.4 mm 1 mps 747 mmHg 86%
22:00 +23°C° 0.4 mm 1 mps 748 mmHg 88%
23:00 +22°C° 0.4 mm 1 mps 748 mmHg 90%

24 June, Thursday

Time Temperature Precipitation Wind Pressure Humidity
00:00 +22°C° 1.1 mm 1 mps 748 mmHg 90%
01:00 +20°C° 1.1 mm 2 mps 748 mmHg 91%
02:00 +20°C° 1.1 mm 2 mps 747 mmHg 91%
03:00 +20°C° 0.1 mm 2 mps 747 mmHg 91%
04:00 +20°C° 0.1 mm 2 mps 747 mmHg 91%
05:00 +21°C° 0.1 mm 1 mps 747 mmHg 91%
06:00 +23°C° 0.1 mm 1 mps 747 mmHg 88%
07:00 +24°C° 0.1 mm 1 mps 748 mmHg 85%
08:00 +25°C° 0.1 mm 1 mps 748 mmHg 82%
09:00 +26°C° 0.1 mm 1 mps 748 mmHg 77%
10:00 +28°C° 0.1 mm 1 mps 748 mmHg 72%
11:00 +29°C° 0.1 mm 1 mps 748 mmHg 67%
12:00 +30°C° 0.9 mm 1 mps 747 mmHg 63%
13:00 +31°C° 0.9 mm 1 mps 747 mmHg 59%
14:00 +32°C° 0.9 mm 1 mps 747 mmHg 55%
15:00 +30°C° 2.3 mm 3 mps 747 mmHg 63%
16:00 +29°C° 2.3 mm 5 mps 747 mmHg 71%
17:00 +27°C° 2.3 mm 6 mps 747 mmHg 78%
18:00 +25°C° 1.6 mm 5 mps 747 mmHg 81%
19:00 +22°C° 1.6 mm 4 mps 746 mmHg 83%
20:00 +20°C° 1.6 mm 3 mps 746 mmHg 86%
21:00 +20°C° 0.1 mm 3 mps 746 mmHg 86%
22:00 +20°C° 0.1 mm 3 mps 745 mmHg 87%
23:00 +19°C° 0.1 mm 3 mps 745 mmHg 88%

25 June, Friday

Time Temperature Precipitation Wind Pressure Humidity
00:00 +19°C° 1.3 mm 3 mps 745 mmHg 90%
01:00 +19°C° 1.3 mm 3 mps 745 mmHg 93%
02:00 +19°C° 1.3 mm 3 mps 745 mmHg 96%
03:00 +19°C° 0 mm 2 mps 745 mmHg 96%
04:00 +19°C° 0 mm 2 mps 744 mmHg 95%
05:00 +20°C° 0 mm 1 mps 744 mmHg 94%
06:00 +21°C° 0 mm 1 mps 744 mmHg 89%
07:00 +22°C° 0 mm 1 mps 744 mmHg 84%
08:00 +24°C° 0 mm 2 mps 744 mmHg 80%
09:00 +25°C° 0 mm 2 mps 744 mmHg 74%
10:00 +26°C° 0 mm 2 mps 744 mmHg 68%
11:00 +28°C° 0 mm 2 mps 744 mmHg 62%
12:00 +29°C° 0 mm 2 mps 744 mmHg 61%
13:00 +30°C° 0 mm 2 mps 744 mmHg 61%
14:00 +31°C° 0 mm 2 mps 743 mmHg 60%
15:00 +30°C° 0.6 mm 2 mps 743 mmHg 63%
16:00 +30°C° 0.6 mm 2 mps 743 mmHg 66%
17:00 +30°C° 0.6 mm 2 mps 742 mmHg 68%
18:00 +27°C° 1.3 mm 3 mps 742 mmHg 76%
19:00 +25°C° 1.3 mm 3 mps 742 mmHg 83%
20:00 +21°C° 1.3 mm 4 mps 742 mmHg 91%
21:00 +21°C° 0.4 mm 4 mps 742 mmHg 92%
22:00 +21°C° 0.4 mm 4 mps 743 mmHg 94%
23:00 +20°C° 0.4 mm 4 mps 743 mmHg 95%
Show more

We Need Your Consent

Meteoprog and our Service Providers may store and access personal data such as cookies, device identifiers or other similar technologies on your device and process such data to personalise content and ads, as well as provide social media features and to analyse the traffic.

  • Store and/or access information on your device

    Cookies, device identifiers or other information can be stored or accessed on your device for the purposes indicated above.

  • Personalised ads and content, ad and content measurement, audience insights, and products development

    Ads and content can be personalised based on a profile. More data can be added to better personalise ads and content. Ad and content performance can be measured. Insights about the audience who saw the ads and content can be derived. Such data can be used to develop or improve user’s experience, systems and software.

By clicking ‘I Agree’ you will allow the use of indicated cookies, device identifiers, web beacons or other similar technologies. Your settings can be changed in the browser on your device.

For certain purposes, legitimate interests may be relied on, rather than consent. You can read more about this in our Privacy and Cookie Policy.